Regional Weather Roundup
Issued by NWS

Home | Current Version | Previous Version | Text Only | Print | Product List | Glossary On
Versions: 1 2 3 4 5 6 7 8 9 10 11 12 13 14 15 16 17 18 19 20 21 22 23 24 25 26 27
000
ASUS45 KBOU 231507
RWRCO

WEATHER ROUNDUP FOR COLORADO
NATIONAL WEATHER SERVICE DENVER/BOULDER CO
900 AM MDT TUE MAY 23 2017

NOTE: "FAIR" INDICATES FEW OR NO CLOUDS BELOW 12000 FEET WITH NO
SIGNIFICANT WEATHER AND/OR OBSTRUCTIONS TO VISIBILITY.

COZ001>005-013-030-031-231600-
...NORTHWEST COLORADO...

CITY           SKY/WX    TMP DP  RH WIND       PRES   REMARKS
CRAIG          CLOUDY    41  34  76 CALM      30.36R
HAYDEN         CLOUDY    37  30  75 CALM      30.35S
MEEKER         FAIR      42  35  76 W3        30.35R
RABBIT EARS PA PTSUNNY   28  27  93 W8        30.35S WCI  20
STEAMBOAT SPGS CLOUDY    37  33  86 SW3       30.35R
WALDEN           N/A     34  30  86 CALM      30.40R
$$

COZ006>008-011-231600-
...WEST CENTRAL VALLEYS...

CITY           SKY/WX    TMP DP  RH WIND       PRES   REMARKS
GRAND JUNCTION FAIR      54  32  43 VRB3      30.29S
MONTROSE       FAIR      49  36  61 VRB3      30.31F
EAGLE          MOSUNNY   43  30  61 CALM      30.36F
RIFLE          FAIR      49  35  58 VRB3      30.31F
DELTA          FAIR      55  37  51 CALM      30.30S
NUCLA          FAIR      54  27  35 N5        30.32S
$$

COZ017>023-064>068-231600-
...SOUTHWEST COLORADO...

CITY           SKY/WX    TMP DP  RH WIND       PRES   REMARKS
DURANGO        FAIR      57  25  29 N5        30.18R
CORTEZ         FAIR      59  30  33 N15       30.22R
PAGOSA SPRINGS FAIR      54   5  13 CALM      30.23R
TELLURIDE      FAIR      43  28  56 W8        30.34F
WOLF CREEK PAS FAIR      30  10  43 N12G22    30.39R WCI  21
$$

COZ009-010-012-014-032>034-037-058>063-231600-
...CENTRAL COLORADO...

CITY           SKY/WX    TMP DP  RH WIND       PRES   REMARKS
ASPEN          FAIR      40  31  70 VRB3      30.32S
BUENA VISTA    FAIR      43  24  48 N18G30    30.28S
COPPER MTN     PTSUNNY   25  19  80 MISG      30.36S
BERTHOUD PASS  CLOUDY    18   7  62 NW16G37   30.32R WCI   3
COTTONWOOD PAS FAIR      37  30  75 CALM      30.32R
GUNNISON       NOT AVBL
KREMMLING      FAIR      45  34  65 CALM      30.34S
LEADVILLE      FAIR      30  21  69 N15       30.32S WCI  19
MONARCH PASS   FAIR      27  18  69 W13       30.45S WCI  16
SALIDA         FAIR      44  31  61 CALM      30.37S
SUNLIGHT       FAIR      28  21  74 CALM      30.42S
WILKERSON PASS FAIR      30  21  69 N3        30.35R
$$

COZ069>075-231600-
...SAN LUIS VALLEY/SANGRE DE CRISTO MOUNTAINS...

CITY           SKY/WX    TMP DP  RH WIND       PRES   REMARKS
ALAMOSA        FAIR      47  29  49 N9        30.25F
DEL NORTE      FAIR      44  29  55 E5        30.28S
LA VETA PASS   PTSUNNY   34  30  86 W3        30.42R
SAGUACHE       FAIR      45  28  53 N10       30.28R
$$

COZ035-036-038>040-231600-
...NORTHERN COLORADO FRONT RANGE...

CITY           SKY/WX    TMP DP  RH WIND       PRES   REMARKS
DENVER INTL AP FAIR      51  34  52 N10       30.22S
DMNS CITY PARK   N/A     53  29  39 N7G17     30.23S
AURORA         MOSUNNY   50  33  52 N14       30.23F
FRONT RANGE AP PTSUNNY  N/A N/A N/A NW12      30.23S
ERIE MUNI ARPT FAIR      53  30  40 N6        30.22S
BOULDER MUN AP FAIR      54  28  37 NW5       30.21F
CENTENNIAL     FAIR      49  30  48 NW9       30.23S
BROOMFIELD     MOSUNNY   54  27  35 W8        30.23F
FORT COLLINS   FAIR      53  36  52 N12       30.22F
LONGMONT       FAIR      58  29  33 N10G18    30.22F
$$

COZ041-046-047-076>085-087-088-231600-
...PIKES PEAK/PALMER DIVIDE AND SOUTHERN FOOTHILLS...

CITY           SKY/WX    TMP DP  RH WIND       PRES   REMARKS
COLO. SPRINGS  FAIR      51  29  42 N17G24    30.25F
A. F. ACADEMY  FAIR      47  28  45 N15G23    30.24S
SCHRIEVER AFB  FAIR      48  28  45 NW17G26   30.24F
CHEYENNE MTN   FAIR      46  26  47 N13G26    30.19S
ELLICOTT       FAIR     N/A N/A N/A N20G29    30.22S
FALCON         FAIR      46  29  51 NW15G22   30.26S
FORT CARSON    FAIR      52  28  39 N18G24    30.23F
LIMON          CLOUDY    47  36  65 N21G30    30.20S
MONUMENT HILL  FAIR      43  32  65 N13G21    30.26S
CANON CITY     NOT AVBL
WALSENBURG     FAIR      50  37  62 NW3       30.25S
TRINIDAD       FAIR      49  35  58 N15       30.24F
$$

COZ042>045-048>051-090-091-231600-
...NORTHEAST COLORADO...

CITY           SKY/WX    TMP DP  RH WIND       PRES   REMARKS
GREELEY ARPT   PTSUNNY   51  39  63 NW9       30.22S
AKRON          FAIR      51  37  58 N21G31    30.18R
BURLINGTON     FAIR      52  40  63 N20G32    30.14F
WRAY           FAIR      55  37  50 NW20G26   30.13F
YUMA           PTSUNNY   50  37  62 NW18G26   30.15S
STERLING       CLOUDY    52  39  62 N18G26    30.16S
HOLYOKE        NOT AVBL
FORT MORGAN    CLOUDY    56  35  45 NW22      30.20S
$$

COZ086-089-092>099-231600-
...SOUTHEAST COLORADO...

CITY           SKY/WX    TMP DP  RH WIND       PRES   REMARKS
PUEBLO         FAIR      56  37  49 NW10      30.22F
LA JUNTA       FAIR      56  38  50 N17       30.20S
LAMAR          FAIR      56  39  53 N18G25    30.15S
SPRINGFIELD      N/A     53  38  56 NW22G31   30.16S
$$




USA.gov is the U.S. government's official web portal to all federal, state and local government web resources and services.